Lafayette, IN

5:08 PM EDT on September 27, 2016 (GMT -0400)
Purdue Univ

Weather History for KLAF - January, 2014

Change the Weather History Date:

Friday, January 24, 2014

  Actual Average Record
Temperature  
Mean Temperature 7 °F 27 °F  
Max Temperature 22 °F 34 °F 66 °F (1967)
Min Temperature -8 °F 19 °F -13 °F (1987)
Degree Days  
Heating Degree Days 58 38  
Month to date heating degree days 986 931  
Since 1 July heating degree days 3324 3106  
Cooling Degree Days 0 0  
Month to date cooling degree days 0 0  
Year to date cooling degree days 0 0  
Moisture  
Dew Point 0 °F    
Average Humidity 66    
Maximum Humidity 83    
Minimum Humidity 49    
Precipitation  
Precipitation T in 0.05 in 0.55 in (1979)
Month to date precipitation 0.77 1.47  
Year to date precipitation 0.77 1.47  
Sea Level Pressure  
Sea Level Pressure 30.19 in    
Wind  
Wind Speed 12 mph (SW)    
Max Wind Speed 26 mph    
Max Gust Speed 36 mph    
Visibility 8 miles    
Events Snow    
T = Trace of Precipitation, MM = Missing Value Source: NWS Daily Summary

Daily Weather History Graph

Daily Weather History Graph

Search for Another Location

Airport or City:

Trip Planner

Search our weather history database for the weather conditions in past years. The results will help you decide how hot, cold, wet, or windy it might be!

Date:

Astronomy

Jan. 24, 2014 Rise Set
Actual Time 8:03 AM EST 5:56 PM EST
Civil Twilight 7:34 AM EST 6:25 PM EST
Nautical Twilight 7:01 AM EST 6:58 PM EST
Astronomical Twilight 6:29 AM EST 7:31 PM EST
Moon 1:30 AM EST (1/24) 12:15 PM EST (1/24)
Length of Visible Light 10h 51m
Length of Day
9h 52m
Last Quarter, 45% of the Moon is Illuminated
Jan 24
Last Quarter
Jan 30
New
Feb 6
First Quarter
Feb 14
Full
Feb 22
Last Quarter

Hourly Weather History & Observations

Time (EST) Temp. Windchill Dew Point Humidity Pressure Visibility Wind Dir Wind Speed Gust Speed Precip Events Conditions
12:54 AM -5.1 °F -15.8 °F -9.9 °F 80% 30.66 in 10.0 mi WSW 4.6 mph - N/A   Clear
1:54 AM -5.1 °F -17.6 °F -9.9 °F 80% 30.64 in 10.0 mi WSW 5.8 mph - N/A   Clear
2:54 AM -7.1 °F -18.1 °F -11.0 °F 83% 30.63 in 10.0 mi WSW 4.6 mph - N/A   Clear
3:54 AM -7.1 °F -18.1 °F -11.9 °F 79% 30.63 in 10.0 mi SW 4.6 mph - N/A   Clear
4:54 AM -7.1 °F -18.1 °F -11.0 °F 83% 30.60 in 10.0 mi SW 4.6 mph - N/A   Clear
5:54 AM -7.1 °F -18.1 °F -11.9 °F 79% 30.58 in 10.0 mi SSW 4.6 mph - N/A   Clear
6:54 AM -7.1 °F -18.1 °F -11.0 °F 83% 30.55 in 10.0 mi SW 4.6 mph - N/A   Clear
7:54 AM -5.1 °F -19.1 °F -11.0 °F 76% 30.51 in 10.0 mi SSW 6.9 mph - N/A   Clear
8:54 AM -2.9 °F -19.8 °F -9.0 °F 75% 30.48 in 10.0 mi SW 10.4 mph - N/A   Clear
9:54 AM 1.9 °F -16.2 °F -6.0 °F 69% 30.44 in 10.0 mi SSW 13.8 mph 19.6 mph N/A   Clear
10:54 AM 7.0 °F -10.4 °F -2.9 °F 64% 30.40 in 9.0 mi SW 15.0 mph 27.6 mph N/A   Clear
11:54 AM 9.0 °F -9.0 °F -2.0 °F 61% 30.33 in 7.0 mi SW 17.3 mph 33.4 mph N/A   Clear
12:54 PM 12.0 °F -6.0 °F -0.9 °F 56% 30.24 in 10.0 mi SSW 19.6 mph 32.2 mph N/A   Clear
1:54 PM 14.0 °F -3.4 °F -0.0 °F 54% 30.15 in 8.0 mi SSW 19.6 mph 35.7 mph N/A   Clear
2:54 PM 17.1 °F 2.5 °F 1.9 °F 52% 30.07 in 10.0 mi SSW 15.0 mph 28.8 mph N/A   Clear
3:54 PM 17.1 °F 1.0 °F 1.9 °F 52% 30.00 in 10.0 mi SSW 18.4 mph 33.4 mph N/A   Partly Cloudy
4:54 PM 18.0 °F 2.2 °F 3.9 °F 54% 29.97 in 10.0 mi SSW 18.4 mph 28.8 mph N/A   Partly Cloudy
5:54 PM 19.0 °F 5.0 °F 5.0 °F 54% 29.94 in 10.0 mi SW 15.0 mph 25.3 mph N/A   Mostly Cloudy
6:54 PM 19.9 °F 6.7 °F 6.1 °F 55% 29.94 in 10.0 mi SSW 13.8 mph 23.0 mph N/A   Partly Cloudy
7:54 PM 21.0 °F 8.6 °F 7.0 °F 55% 29.89 in 10.0 mi SSW 12.7 mph - N/A   Overcast
8:54 PM 21.9 °F 9.2 °F 7.0 °F 53% 29.88 in 10.0 mi SW 13.8 mph 27.6 mph N/A   Overcast
9:27 PM 21.0 °F 5.4 °F 10.9 °F 65% 29.82 in 2.5 mi SW 20.7 mph 27.6 mph 0.00 in Snow Light Snow
9:54 PM 21.0 °F 8.1 °F 12.9 °F 71% 29.82 in 4.0 mi SW 13.8 mph 24.2 mph 0.00 in Snow Light Snow
10:01 PM 21.0 °F 7.1 °F 12.0 °F 68% 29.78 in 7.0 mi SW 16.1 mph 24.2 mph 0.00 in Snow Light Snow
10:54 PM 21.9 °F 6.5 °F 10.9 °F 63% 29.77 in 3.0 mi SW 20.7 mph 29.9 mph 0.00 in Snow Light Snow
11:07 PM 21.9 °F 9.8 °F 10.9 °F 63% 29.73 in 5.0 mi SW 12.7 mph 29.9 mph 0.00 in Snow Light Snow
11:54 PM 21.0 °F 5.7 °F 15.1 °F 78% 29.74 in 1.8 mi SW 19.6 mph 28.8 mph 0.00 in Snow Light Snow